Pocatello, ID

9:18 AM MDT on July 26, 2017 (GMT -0600)
Pocatello Regional

Weather History for KPIH - April, 2013

Change the Weather History Date:

Monday, April 15, 2013

  Actual Average Record
Temperature  
Mean Temperature 36 °F 45 °F  
Max Temperature 45 °F 58 °F 78 °F (1985)
Min Temperature 26 °F 33 °F 21 °F (1995)
Degree Days  
Heating Degree Days 29 20  
Month to date heating degree days 310 318  
Since 1 July heating degree days 6212 6430  
Cooling Degree Days 0 0  
Month to date cooling degree days 0 0  
Year to date cooling degree days 0 0  
Moisture  
Dew Point 24 °F    
Average Humidity 62    
Maximum Humidity 85    
Minimum Humidity 39    
Precipitation  
Precipitation 0.02 in 0.04 in 0.56 in (1991)
Month to date precipitation 0.30 0.54  
Year to date precipitation 2.10 3.76  
Snow  
Snow 0.40 in - - ()
Month to date snowfall 0.8  
Since 1 July snowfall 35.5  
Snow Depth 0.00 in    
Sea Level Pressure  
Sea Level Pressure 29.76 in    
Wind  
Wind Speed 6 mph (North)    
Max Wind Speed 15 mph    
Max Gust Speed 18 mph    
Visibility 8 miles    
Events Snow    
T = Trace of Precipitation, MM = Missing Value Source: NWS Daily Summary

Daily Weather History Graph

Daily Weather History Graph

Search for Another Location

Airport or City:

Trip Planner

Search our weather history database for the weather conditions in past years. The results will help you decide how hot, cold, wet, or windy it might be!

Date:

Astronomy

Apr. 15, 2013 Rise Set
Actual Time 6:48 AM MDT 8:13 PM MDT
Civil Twilight 6:18 AM MDT 8:42 PM MDT
Nautical Twilight 5:43 AM MDT 9:18 PM MDT
Astronomical Twilight 5:05 AM MDT 9:56 PM MDT
Moon 10:13 AM MDT (4/15) 12:32 AM MDT (4/15)
Length of Visible Light 14h 24m
Length of Day
13h 25m
Waxing Crescent, 25% of the Moon is Illuminated
Apr 15
Waxing Crescent
Apr 18
First Quarter
Apr 25
Full
May 2
Last Quarter
May 9
New

Hourly Weather History & Observations

Time (MDT) Temp. Windchill Dew Point Humidity Pressure Visibility Wind Dir Wind Speed Gust Speed Precip Events Conditions
12:53 AM 30.9 °F 23.5 °F 18.0 °F 59% 29.72 in 10.0 mi NW 8.1 mph - N/A   Overcast
1:53 AM 28.0 °F - 19.0 °F 69% 29.71 in 10.0 mi Calm Calm - N/A   Mostly Cloudy
2:53 AM 30.9 °F - 21.0 °F 67% 29.72 in 10.0 mi Calm Calm - N/A   Overcast
3:53 AM 30.9 °F 27.5 °F 19.9 °F 64% 29.71 in 10.0 mi East 3.5 mph - N/A   Overcast
4:53 AM 28.9 °F - 19.9 °F 69% 29.72 in 10.0 mi Calm Calm - N/A   Mostly Cloudy
5:53 AM 28.0 °F - 21.0 °F 75% 29.74 in 10.0 mi Calm Calm - N/A   Overcast
6:42 AM 30.2 °F 24.3 °F 26.6 °F 86% 29.72 in 2.5 mi North 5.8 mph - 0.00 in Snow Light Snow
6:53 AM 30.0 °F 26.5 °F 26.1 °F 85% 29.75 in 2.0 mi North 3.5 mph - 0.00 in Snow Light Snow
7:07 AM 30.2 °F 25.4 °F 26.6 °F 86% 29.73 in 4.0 mi NE 4.6 mph - 0.00 in   Overcast
7:25 AM 30.2 °F 23.4 °F 26.6 °F 86% 29.73 in 3.0 mi ENE 6.9 mph - 0.00 in Snow Light Snow
7:41 AM 30.2 °F 24.3 °F 26.6 °F 86% 29.73 in 2.0 mi ENE 5.8 mph - 0.01 in Snow Light Snow
7:53 AM 30.0 °F 22.4 °F 27.0 °F 88% 29.76 in 2.0 mi NE 8.1 mph - 0.01 in Snow Light Snow
8:31 AM 30.2 °F 24.3 °F 26.6 °F 86% 29.74 in 4.0 mi NE 5.8 mph - 0.00 in Snow Light Snow
8:53 AM 30.9 °F 25.2 °F 27.0 °F 85% 29.78 in 2.0 mi ENE 5.8 mph - 0.00 in Snow Light Snow
9:33 AM 32.0 °F 27.5 °F 26.6 °F 80% 29.75 in 8.0 mi North 4.6 mph - 0.00 in Snow Light Snow
9:53 AM 33.1 °F 28.7 °F 27.0 °F 78% 29.79 in 6.0 mi North 4.6 mph - 0.00 in Snow Light Snow
10:53 AM 33.1 °F 30.0 °F 27.0 °F 78% 29.80 in 8.0 mi NE 3.5 mph - 0.00 in   Overcast
11:53 AM 33.1 °F 28.7 °F 26.1 °F 75% 29.80 in 3.0 mi WSW 4.6 mph - 0.00 in Snow Light Snow
12:53 PM 37.0 °F 33.3 °F 28.0 °F 70% 29.79 in 10.0 mi Variable 4.6 mph - 0.01 in   Mostly Cloudy
1:16 PM 39.2 °F 33.6 °F 26.6 °F 61% 29.75 in 10.0 mi WSW 8.1 mph - N/A   Mostly Cloudy
1:53 PM 41.0 °F 35.8 °F 25.0 °F 53% 29.77 in 10.0 mi WSW 8.1 mph - N/A   Mostly Cloudy
2:53 PM 42.1 °F 38.4 °F 23.0 °F 47% 29.76 in 10.0 mi NW 5.8 mph - N/A   Mostly Cloudy
3:53 PM 43.0 °F 38.2 °F 19.9 °F 40% 29.76 in 10.0 mi WNW 8.1 mph - N/A   Mostly Cloudy
4:53 PM 45.0 °F 39.3 °F 21.0 °F 39% 29.75 in 10.0 mi West 11.5 mph 17.3 mph N/A   Scattered Clouds
5:53 PM 44.1 °F 39.0 °F 21.0 °F 40% 29.77 in 10.0 mi NW 9.2 mph - N/A   Scattered Clouds
6:53 PM 42.1 °F 35.2 °F 26.1 °F 53% 29.79 in 10.0 mi North 12.7 mph - N/A   Scattered Clouds
7:53 PM 37.0 °F 30.4 °F 25.0 °F 62% 29.81 in 10.0 mi North 9.2 mph - N/A   Scattered Clouds
8:53 PM 32.0 °F 25.6 °F 24.1 °F 73% 29.83 in 10.0 mi NE 6.9 mph - N/A   Partly Cloudy
9:53 PM 30.0 °F 20.5 °F 25.0 °F 82% 29.77 in 10.0 mi NNE 11.5 mph - N/A   Clear
10:53 PM 28.9 °F 23.9 °F 24.1 °F 82% 29.82 in 10.0 mi NNE 4.6 mph - N/A   Partly Cloudy
11:53 PM 28.9 °F 22.8 °F 24.1 °F 82% 29.83 in 10.0 mi North 5.8 mph - N/A   Clear